Weather History for Opa Locka, FL

Change the Weather History Date:

Tuesday, March 26, 2013

  Actual Average Record
Temperature  
Mean Temperature 62 °F -  
Max Temperature 71 °F 81 °F 90 °F (1975)
Min Temperature 53 °F 65 °F 50 °F (1956)
Degree Days  
Heating Degree Days 2    
Growing Degree Days 12 (Base 50)    
Moisture  
Dew Point 36 °F    
Average Humidity 40    
Maximum Humidity 64    
Minimum Humidity 24    
Precipitation  
Precipitation 0.00 in - - ()
Sea Level Pressure  
Sea Level Pressure 30.11 in    
Wind  
Wind Speed 14 mph (NNW)    
Max Wind Speed 20 mph    
Max Gust Speed 24 mph    
Visibility 10 miles    
Events      
Averages and records for this station are not official NWS values.
T = Trace of Precipitation, MM = Missing Value Source: NWS Daily Summary

Daily Weather History Graph

Daily Weather History Graph

Search for Another Location

Airport:

Trip Planner

Search our weather history database for the weather conditions in past years. The results will help you decide how hot, cold, wet, or windy it might be!

Date:

Astronomy

Mar. 26, 2013 Rise Set
Actual Time 7:18 AM EDT 7:35 PM EDT
Civil Twilight 6:55 AM EDT 7:58 PM EDT
Nautical Twilight 6:28 AM EDT 8:25 PM EDT
Astronomical Twilight 6:01 AM EDT 8:52 PM EDT
Moon 7:08 PM EDT (3/26) 6:32 AM EDT (3/26)
Length of Visible Light 13h 02m
Length of Day
12h 16m
Waxing Gibbous, 99% of the Moon is Illuminated
Mar 26
Waxing Gibbous
Mar 27
Full
Apr 3
Last Quarter
Apr 10
New
Apr 18
First Quarter

Hourly Weather History & Observations

Time (EDT) Temp. Dew Point Humidity Pressure Visibility Wind Dir Wind Speed Gust Speed Precip Events Conditions
12:53 AM 64.0 °F 35.1 °F 34% 30.02 in 10.0 mi NNW 15.0 mph - N/A   Mostly Cloudy
1:53 AM 63.0 °F 35.1 °F 35% 30.03 in 10.0 mi NW 9.2 mph - N/A   Overcast
2:53 AM 60.1 °F 36.0 °F 41% 30.04 in 10.0 mi NW 17.3 mph 24.2 mph N/A   Mostly Cloudy
3:53 AM 57.0 °F 42.1 °F 57% 30.03 in 10.0 mi NW 13.8 mph 20.7 mph N/A   Mostly Cloudy
4:53 AM 57.0 °F 44.1 °F 62% 30.04 in 10.0 mi NW 11.5 mph - N/A   Overcast
5:53 AM 57.0 °F 45.0 °F 64% 30.04 in 10.0 mi NNW 11.5 mph - N/A   Overcast
6:53 AM 57.9 °F 44.1 °F 60% 30.06 in 10.0 mi North 11.5 mph - N/A   Overcast
7:53 AM 57.9 °F 43.0 °F 58% 30.08 in 10.0 mi NNW 16.1 mph 20.7 mph N/A   Overcast
8:53 AM 60.1 °F 36.0 °F 41% 30.11 in 10.0 mi North 16.1 mph 21.9 mph N/A   Mostly Cloudy
9:53 AM 61.0 °F 34.0 °F 36% 30.13 in 10.0 mi North 17.3 mph - N/A   Mostly Cloudy
10:53 AM 63.0 °F 34.0 °F 34% 30.13 in 10.0 mi North 15.0 mph - N/A   Clear
11:53 AM 64.9 °F 37.0 °F 36% 30.13 in 10.0 mi North 16.1 mph - N/A   Clear
12:53 PM 68.0 °F 39.0 °F 35% 30.13 in 10.0 mi NNW 16.1 mph 21.9 mph N/A   Clear
1:53 PM 69.1 °F 32.0 °F 25% 30.11 in 10.0 mi North 17.3 mph 21.9 mph N/A   Clear
2:53 PM 70.0 °F 35.1 °F 28% 30.10 in 10.0 mi NW 12.7 mph 21.9 mph N/A   Clear
3:53 PM 70.0 °F 33.1 °F 26% 30.09 in 10.0 mi NNW 12.7 mph - N/A   Clear
4:53 PM 69.1 °F 30.9 °F 24% 30.09 in 10.0 mi WNW 19.6 mph - N/A   Clear
5:53 PM 68.0 °F 34.0 °F 28% 30.10 in 10.0 mi NNW 16.1 mph 24.2 mph N/A   Clear
6:53 PM 66.0 °F 36.0 °F 33% 30.12 in 10.0 mi NW 15.0 mph 20.7 mph N/A   Clear
7:53 PM 63.0 °F 37.0 °F 38% 30.14 in 10.0 mi NNW 12.7 mph - N/A   Clear
8:53 PM 60.1 °F 34.0 °F 38% 30.17 in 10.0 mi NW 12.7 mph - N/A   Clear
9:53 PM 57.0 °F 30.9 °F 37% 30.20 in 10.0 mi NNW 18.4 mph 23.0 mph N/A   Clear
10:53 PM 55.0 °F 32.0 °F 42% 30.22 in 10.0 mi NNW 16.1 mph - N/A   Clear
11:53 PM 53.1 °F 34.0 °F 48% 30.23 in 10.0 mi NW 12.7 mph 21.9 mph N/A   Clear